Station Historical Data
Daily Summary for July 2, 2017 Units:  English    Metric   Both
Next Day »
Daily Weekly Monthly Yearly Custom
  High: Low: Average:
Temperature: 87.4 °F 66.6 °F 75.2 °F
Dew Point: 61.6 °F 51.2 °F 55.7 °F
Humidity: 67% 35% 52%
Wind Speed: 16.0mph 0.0mph 1.8mph
Wind Gust: 19.0mph - -
Wind- - SSE
Pressure: 29.93 in 29.80 in -
Precipitation: 0.00 in    
Historical Graphs
 
 
Tabular Data for July 2, 2017
Time Temperature Dew Point Pressure Wind Wind Speed Wind Gust Humidity Rainfall Rate (Hourly) solar Conditions
00:04 68.3 °F 54.3 °F 29.81 in Calm   6.0 mph 61% 0.00 in 0.00 W/m2
00:09 68.3 °F 54.3 °F 29.81 in Calm   7.0 mph 61% 0.00 in 0.00 W/m2
00:14 68.3 °F 54.3 °F 29.81 in Calm   7.0 mph 61% 0.00 in 0.00 W/m2
00:19 68.3 °F 54.3 °F 29.81 in ESE 4.0 mph 9.0 mph 61% 0.00 in 0.00 W/m2
00:24 68.2 °F 54.2 °F 29.81 in East 1.0 mph 9.0 mph 61% 0.00 in 0.00 W/m2
00:29 68.2 °F 54.7 °F 29.81 in East 8.0 mph 11.0 mph 62% 0.00 in 0.00 W/m2
00:34 68.2 °F 54.7 °F 29.81 in ESE 9.0 mph 9.0 mph 62% 0.00 in 0.00 W/m2
00:39 68.2 °F 54.7 °F 29.81 in Calm   8.0 mph 62% 0.00 in 0.00 W/m2
00:44 68.2 °F 54.7 °F 29.81 in East 4.0 mph 9.0 mph 62% 0.00 in 0.00 W/m2
00:49 68.1 °F 54.6 °F 29.81 in Calm   8.0 mph 62% 0.00 in 0.00 W/m2
00:54 68.2 °F 54.7 °F 29.82 in East 4.0 mph 9.0 mph 62% 0.00 in 0.00 W/m2
00:56 68.2 °F 54.7 °F 29.81 in East 5.0 mph 5.0 mph 62% 0.00 in 0.00 W/m2
01:01 68.2 °F 54.7 °F 29.81 in ESE 6.0 mph 8.0 mph 62% 0.00 in 0.00 W/m2
01:06 68.2 °F 54.7 °F 29.81 in East 2.0 mph 8.0 mph 62% 0.00 in 0.00 W/m2
01:11 68.3 °F 54.8 °F 29.81 in East 4.0 mph 8.0 mph 62% 0.00 in 0.00 W/m2
01:16 68.3 °F 54.8 °F 29.82 in ESE 1.0 mph 6.0 mph 62% 0.00 in 0.00 W/m2
01:21 68.3 °F 54.3 °F 29.82 in East 7.0 mph 7.0 mph 61% 0.00 in 0.00 W/m2
01:26 68.3 °F 54.3 °F 29.82 in Calm   7.0 mph 61% 0.00 in 0.00 W/m2
01:31 68.3 °F 54.8 °F 29.82 in East 6.0 mph 9.0 mph 62% 0.00 in 0.00 W/m2
01:36 68.3 °F 54.3 °F 29.82 in ESE 4.0 mph 4.0 mph 61% 0.00 in 0.00 W/m2
01:41 68.4 °F 54.4 °F 29.82 in ESE 5.0 mph 6.0 mph 61% 0.00 in 0.00 W/m2
01:46 68.4 °F 54.4 °F 29.81 in East 2.0 mph 11.0 mph 61% 0.00 in 0.00 W/m2
01:51 68.4 °F 54.4 °F 29.81 in Calm   9.0 mph 61% 0.00 in 0.00 W/m2
01:56 68.4 °F 54.4 °F 29.81 in East 6.0 mph 6.0 mph 61% 0.00 in 0.00 W/m2
02:01 68.5 °F 54.5 °F 29.81 in ESE 1.0 mph 11.0 mph 61% 0.00 in 0.00 W/m2
02:06 68.5 °F 54.5 °F 29.81 in East 5.0 mph 12.0 mph 61% 0.00 in 0.00 W/m2
02:11 68.5 °F 54.1 °F 29.81 in East 6.0 mph 11.0 mph 60% 0.00 in 0.00 W/m2
02:16 68.5 °F 54.1 °F 29.81 in East 7.0 mph 12.0 mph 60% 0.00 in 0.00 W/m2
02:21 68.5 °F 54.1 °F 29.81 in East 7.0 mph 13.0 mph 60% 0.00 in 0.00 W/m2
02:26 68.5 °F 54.1 °F 29.81 in East 12.0 mph 14.0 mph 60% 0.00 in 0.00 W/m2
02:31 68.5 °F 54.1 °F 29.81 in East 7.0 mph 11.0 mph 60% 0.00 in 0.00 W/m2
02:37 68.6 °F 54.2 °F 29.81 in East 1.0 mph 8.0 mph 60% 0.00 in 0.00 W/m2
02:42 68.6 °F 54.2 °F 29.81 in East 2.0 mph 9.0 mph 60% 0.00 in 0.00 W/m2
02:47 68.6 °F 54.2 °F 29.81 in Calm   12.0 mph 60% 0.00 in 0.00 W/m2
02:52 68.6 °F 54.2 °F 29.81 in ESE 7.0 mph 11.0 mph 60% 0.00 in 0.00 W/m2
02:57 68.6 °F 54.2 °F 29.81 in East 12.0 mph 12.0 mph 60% 0.00 in 0.00 W/m2
03:02 68.6 °F 53.7 °F 29.80 in East 8.0 mph 12.0 mph 59% 0.00 in 0.00 W/m2
03:03 68.6 °F 53.7 °F 29.81 in Calm   13.0 mph 59% 0.00 in 0.00 W/m2
03:08 68.6 °F 53.7 °F 29.80 in East 5.0 mph 13.0 mph 59% 0.00 in 0.00 W/m2
03:13 68.5 °F 53.6 °F 29.80 in East 6.0 mph 13.0 mph 59% 0.00 in 0.00 W/m2
03:18 68.5 °F 53.6 °F 29.80 in Calm   13.0 mph 59% 0.00 in 0.00 W/m2
03:23 68.5 °F 53.6 °F 29.80 in Calm   12.0 mph 59% 0.00 in 0.00 W/m2
03:28 68.4 °F 53.5 °F 29.80 in East 6.0 mph 14.0 mph 59% 0.00 in 0.00 W/m2
03:33 68.4 °F 53.5 °F 29.80 in East 7.0 mph 11.0 mph 59% 0.00 in 0.00 W/m2
03:38 68.4 °F 53.1 °F 29.80 in Calm   12.0 mph 58% 0.00 in 0.00 W/m2
03:43 68.4 °F 53.5 °F 29.80 in East 2.0 mph 14.0 mph 59% 0.00 in 0.00 W/m2
03:48 68.3 °F 53.0 °F 29.80 in East 6.0 mph 12.0 mph 58% 0.00 in 0.00 W/m2
03:52 68.3 °F 53.0 °F 29.80 in East 5.0 mph 9.0 mph 58% 0.00 in 0.00 W/m2
03:57 68.3 °F 53.0 °F 29.80 in Calm   9.0 mph 58% 0.00 in 0.00 W/m2
04:02 68.2 °F 52.9 °F 29.80 in ESE 16.0 mph 16.0 mph 58% 0.00 in 0.00 W/m2
04:07 68.2 °F 52.9 °F 29.80 in East 1.0 mph 11.0 mph 58% 0.00 in 0.00 W/m2
04:12 68.1 °F 52.8 °F 29.80 in East 1.0 mph 9.0 mph 58% 0.00 in 0.00 W/m2
04:17 68.1 °F 52.8 °F 29.80 in East 5.0 mph 13.0 mph 58% 0.00 in 0.00 W/m2
04:22 68.1 °F 52.3 °F 29.80 in Calm   12.0 mph 57% 0.00 in 0.00 W/m2
04:27 68.0 °F 52.2 °F 29.81 in East 9.0 mph 12.0 mph 57% 0.00 in 0.00 W/m2
04:32 68.0 °F 52.2 °F 29.81 in East 7.0 mph 14.0 mph 57% 0.00 in 0.00 W/m2
04:37 68.0 °F 52.2 °F 29.81 in ESE 6.0 mph 19.0 mph 57% 0.00 in 0.00 W/m2
04:42 68.0 °F 52.2 °F 29.81 in East 8.0 mph 12.0 mph 57% 0.00 in 0.00 W/m2
04:47 68.0 °F 52.2 °F 29.81 in ESE 4.0 mph 12.0 mph 57% 0.00 in 0.00 W/m2
04:52 68.0 °F 52.2 °F 29.81 in Calm   12.0 mph 57% 0.00 in 0.00 W/m2
04:57 68.0 °F 51.7 °F 29.81 in East 4.0 mph 11.0 mph 56% 0.00 in 0.00 W/m2
05:02 68.0 °F 51.7 °F 29.81 in ESE 8.0 mph 11.0 mph 56% 0.00 in 0.00 W/m2
05:07 68.0 °F 52.2 °F 29.81 in ESE 7.0 mph 11.0 mph 57% 0.00 in 0.00 W/m2
05:12 68.0 °F 52.2 °F 29.81 in ESE 6.0 mph 16.0 mph 57% 0.00 in 0.00 W/m2
05:14 67.9 °F 51.6 °F 29.81 in ESE 8.0 mph 16.0 mph 56% 0.00 in 0.00 W/m2
05:19 67.9 °F 51.6 °F 29.81 in East 2.0 mph 12.0 mph 56% 0.00 in 0.00 W/m2
05:24 67.9 °F 52.1 °F 29.82 in ESE 6.0 mph 12.0 mph 57% 0.00 in 0.00 W/m2
05:29 67.8 °F 51.5 °F 29.82 in ESE 1.0 mph 11.0 mph 56% 0.00 in 0.00 W/m2
05:34 67.7 °F 51.5 °F 29.82 in Calm   9.0 mph 56% 0.00 in 0.00 W/m2
05:39 67.7 °F 51.5 °F 29.82 in Calm   11.0 mph 56% 0.00 in 5.00 W/m2
05:44 67.7 °F 51.5 °F 29.82 in East 7.0 mph 11.0 mph 56% 0.00 in 5.00 W/m2
05:49 67.6 °F 51.4 °F 29.82 in East 2.0 mph 11.0 mph 56% 0.00 in 9.00 W/m2
05:54 67.6 °F 51.4 °F 29.83 in ESE 1.0 mph 8.0 mph 56% 0.00 in 11.00 W/m2
05:59 67.6 °F 51.8 °F 29.83 in ESE 4.0 mph 8.0 mph 57% 0.00 in 12.00 W/m2
06:04 67.5 °F 51.3 °F 29.83 in Calm   6.0 mph 56% 0.00 in 16.00 W/m2
06:09 67.5 °F 51.3 °F 29.83 in East 6.0 mph 7.0 mph 56% 0.00 in 18.00 W/m2
06:14 67.4 °F 51.2 °F 29.84 in ESE 5.0 mph 7.0 mph 56% 0.00 in 21.00 W/m2
06:19 67.4 °F 51.7 °F 29.83 in Calm   1.0 mph 57% 0.00 in 32.00 W/m2
06:24 67.4 °F 51.7 °F 29.84 in Calm   2.0 mph 57% 0.00 in 42.00 W/m2
06:29 67.3 °F 51.6 °F 29.84 in Calm   4.0 mph 57% 0.00 in 54.00 W/m2
06:34 67.3 °F 52.0 °F 29.84 in Calm   5.0 mph 58% 0.00 in 67.00 W/m2
06:39 67.2 °F 51.9 °F 29.84 in ESE 1.0 mph 6.0 mph 58% 0.00 in 77.00 W/m2
06:44 67.1 °F 51.8 °F 29.84 in Calm   5.0 mph 58% 0.00 in 93.00 W/m2
06:49 67.0 °F 52.2 °F 29.84 in Calm   5.0 mph 59% 0.00 in 111.00 W/m2
06:54 66.9 °F 52.6 °F 29.85 in Calm   8.0 mph 60% 0.00 in 128.00 W/m2
06:59 66.8 °F 52.5 °F 29.85 in East 1.0 mph 7.0 mph 60% 0.00 in 148.00 W/m2
07:04 66.7 °F 52.8 °F 29.85 in East 4.0 mph 8.0 mph 61% 0.00 in 165.00 W/m2
07:09 66.7 °F 52.8 °F 29.85 in Calm   7.0 mph 61% 0.00 in 185.00 W/m2
07:14 66.7 °F 52.8 °F 29.85 in East 1.0 mph 8.0 mph 61% 0.00 in 206.00 W/m2
07:19 66.6 °F 53.2 °F 29.85 in Calm   8.0 mph 62% 0.00 in 221.00 W/m2
07:24 66.6 °F 53.2 °F 29.85 in East 1.0 mph 8.0 mph 62% 0.00 in 241.00 W/m2
07:29 66.7 °F 53.3 °F 29.85 in Calm   9.0 mph 62% 0.00 in 260.00 W/m2
07:34 66.7 °F 53.3 °F 29.85 in Calm   7.0 mph 62% 0.00 in 278.00 W/m2
07:39 66.8 °F 53.8 °F 29.85 in Calm   5.0 mph 63% 0.00 in 294.00 W/m2
07:44 66.8 °F 53.8 °F 29.85 in Calm   6.0 mph 63% 0.00 in 311.00 W/m2
07:50 66.9 °F 53.9 °F 29.86 in Calm   4.0 mph 63% 0.00 in 327.00 W/m2
07:55 67.0 °F 54.4 °F 29.86 in Calm   6.0 mph 64% 0.00 in 343.00 W/m2
08:00 67.2 °F 54.6 °F 29.86 in Calm   7.0 mph 64% 0.00 in 359.00 W/m2
08:05 67.3 °F 55.2 °F 29.86 in East 1.0 mph 6.0 mph 65% 0.00 in 373.00 W/m2
08:10 67.4 °F 55.2 °F 29.86 in Calm   5.0 mph 65% 0.00 in 390.00 W/m2
08:15 67.6 °F 55.8 °F 29.86 in East 6.0 mph 7.0 mph 66% 0.00 in 406.00 W/m2
08:20 67.8 °F 56.0 °F 29.86 in East 2.0 mph 8.0 mph 66% 0.00 in 422.00 W/m2
08:25 68.0 °F 56.2 °F 29.86 in East 4.0 mph 5.0 mph 66% 0.00 in 438.00 W/m2
08:30 68.2 °F 56.8 °F 29.87 in East 4.0 mph 8.0 mph 67% 0.00 in 452.00 W/m2
08:35 68.5 °F 57.1 °F 29.86 in East 2.0 mph 8.0 mph 67% 0.00 in 468.00 W/m2
08:45 69.0 °F 57.6 °F 29.87 in Calm   2.0 mph 67% 0.00 in 497.00 W/m2
08:50 69.4 °F 58.0 °F 29.86 in Calm   2.0 mph 67% 0.00 in 517.00 W/m2
08:55 69.8 °F 58.4 °F 29.87 in Calm   5.0 mph 67% 0.00 in 527.00 W/m2
09:00 70.1 °F 58.7 °F 29.87 in Calm   2.0 mph 67% 0.00 in 541.00 W/m2
09:05 70.4 °F 58.5 °F 29.87 in East 1.0 mph 7.0 mph 66% 0.00 in 557.00 W/m2
09:10 70.7 °F 59.2 °F 29.87 in Calm   5.0 mph 67% 0.00 in 573.00 W/m2
09:15 71.0 °F 59.1 °F 29.87 in Calm   5.0 mph 66% 0.00 in 589.00 W/m2
09:20 71.2 °F 58.0 °F 29.87 in Calm   5.0 mph 63% 0.00 in 603.00 W/m2
09:25 71.6 °F 59.2 °F 29.87 in Calm   1.0 mph 65% 0.00 in 617.00 W/m2
09:26 71.6 °F 58.8 °F 29.87 in Calm     64% 0.00 in 617.00 W/m2
09:31 71.9 °F 58.2 °F 29.87 in Calm     62% 0.00 in 631.00 W/m2
09:36 72.2 °F 58.0 °F 29.87 in Calm     61% 0.00 in 645.00 W/m2
09:41 72.4 °F 57.8 °F 29.87 in Calm     60% 0.00 in 661.00 W/m2
09:46 72.6 °F 58.8 °F 29.87 in Calm     62% 0.00 in 673.00 W/m2
09:51 73.0 °F 58.8 °F 29.87 in Calm     61% 0.00 in 687.00 W/m2
09:56 73.2 °F 57.1 °F 29.87 in Calm     57% 0.00 in 700.00 W/m2
10:01 73.4 °F 56.3 °F 29.87 in Calm     55% 0.00 in 708.00 W/m2
10:06 73.9 °F 56.7 °F 29.87 in Calm     55% 0.00 in 724.00 W/m2
10:11 74.5 °F 57.3 °F 29.87 in Calm     55% 0.00 in 733.00 W/m2
10:16 75.2 °F 58.4 °F 29.88 in East 1.0 mph 4.0 mph 56% 0.00 in 745.00 W/m2
10:21 75.9 °F 59.6 °F 29.88 in Calm     57% 0.00 in 758.00 W/m2
10:26 76.5 °F 60.6 °F 29.88 in Calm   1.0 mph 58% 0.00 in 766.00 W/m2
10:31 77.1 °F 61.2 °F 29.88 in North 1.0 mph 2.0 mph 58% 0.00 in 775.00 W/m2
10:36 77.5 °F 61.6 °F 29.88 in Calm     58% 0.00 in 786.00 W/m2
10:41 77.9 °F 60.5 °F 29.88 in North 3.0 mph 3.0 mph 55% 0.00 in 791.00 W/m2
10:46 78.2 °F 60.7 °F 29.88 in Calm   1.0 mph 55% 0.00 in 802.00 W/m2
10:51 78.5 °F 60.5 °F 29.88 in Calm   1.0 mph 54% 0.00 in 816.00 W/m2
10:56 78.7 °F 60.2 °F 29.88 in Calm   3.0 mph 53% 0.00 in 824.00 W/m2
11:01 78.9 °F 59.8 °F 29.88 in WNW 4.0 mph 5.0 mph 52% 0.00 in 833.00 W/m2
11:06 79.1 °F 59.4 °F 29.88 in Calm   1.0 mph 51% 0.00 in 842.00 W/m2
11:11 79.3 °F 59.6 °F 29.88 in Calm   3.0 mph 51% 0.00 in 851.00 W/m2
11:16 79.4 °F 58.6 °F 29.88 in WNW 4.0 mph 5.0 mph 49% 0.00 in 858.00 W/m2
11:21 79.6 °F 58.2 °F 29.88 in Calm     48% 0.00 in 867.00 W/m2
11:26 79.8 °F 57.8 °F 29.88 in WNW 4.0 mph 4.0 mph 47% 0.00 in 872.00 W/m2
11:31 80.0 °F 57.4 °F 29.88 in Calm   1.0 mph 46% 0.00 in 879.00 W/m2
11:36 80.1 °F 58.1 °F 29.89 in WNW 1.0 mph 4.0 mph 47% 0.00 in 888.00 W/m2
11:41 80.4 °F 58.3 °F 29.89 in WNW 1.0 mph 5.0 mph 47% 0.00 in 893.00 W/m2
11:46 80.6 °F 59.1 °F 29.89 in WNW 2.0 mph 2.0 mph 48% 0.00 in 898.00 W/m2
11:51 80.8 °F 58.7 °F 29.89 in SW 5.0 mph 7.0 mph 47% 0.00 in 904.00 W/m2
11:56 81.2 °F 57.9 °F 29.89 in Calm     45% 0.00 in 907.00 W/m2
12:01 81.5 °F 57.5 °F 29.89 in Calm     44% 0.00 in 912.00 W/m2
12:06 81.7 °F 58.3 °F 29.89 in West 1.0 mph 5.0 mph 45% 0.00 in 918.00 W/m2
12:11 82.0 °F 58.0 °F 29.89 in WSW 4.0 mph 5.0 mph 44% 0.00 in 923.00 W/m2
12:16 82.3 °F 58.2 °F 29.89 in Calm   2.0 mph 44% 0.00 in 925.00 W/m2
12:21 82.6 °F 57.2 °F 29.89 in West 2.0 mph 3.0 mph 42% 0.00 in 926.00 W/m2
12:27 82.8 °F 57.4 °F 29.89 in SSW 2.0 mph 7.0 mph 42% 0.00 in 930.00 W/m2
12:31 83.0 °F 58.9 °F 29.89 in Calm     44% 0.00 in 930.00 W/m2
12:32 83.0 °F 58.9 °F 29.89 in Calm     44% 0.00 in 930.00 W/m2
12:37 83.4 °F 58.6 °F 29.89 in Calm   6.0 mph 43% 0.00 in 933.00 W/m2
12:42 83.8 °F 58.9 °F 29.89 in Calm   2.0 mph 43% 0.00 in 939.00 W/m2
12:47 84.3 °F 59.4 °F 29.89 in WSW 8.0 mph 11.0 mph 43% 0.00 in 937.00 W/m2
12:52 84.9 °F 59.3 °F 29.89 in SW 5.0 mph 8.0 mph 42% 0.00 in 939.00 W/m2
12:57 85.2 °F 58.2 °F 29.89 in SW 4.0 mph 7.0 mph 40% 0.00 in 942.00 W/m2
13:02 85.4 °F 58.4 °F 29.89 in Calm     40% 0.00 in 940.00 W/m2
13:07 85.1 °F 58.8 °F 29.89 in WNW 1.0 mph 6.0 mph 41% 0.00 in 933.00 W/m2
13:12 85.0 °F 59.4 °F 29.89 in West 5.0 mph 7.0 mph 42% 0.00 in 944.00 W/m2
13:17 84.9 °F 59.3 °F 29.89 in SW 2.0 mph 7.0 mph 42% 0.00 in 940.00 W/m2
13:22 85.2 °F 57.5 °F 29.89 in SSW 3.0 mph 4.0 mph 39% 0.00 in 946.00 W/m2
13:27 85.3 °F 58.3 °F 29.89 in Calm   3.0 mph 40% 0.00 in 928.00 W/m2
13:32 85.2 °F 58.9 °F 29.89 in SW 3.0 mph 9.0 mph 41% 0.00 in 939.00 W/m2
13:37 85.3 °F 57.6 °F 29.89 in Calm   8.0 mph 39% 0.00 in 940.00 W/m2
13:42 85.4 °F 56.9 °F 29.89 in Calm   3.0 mph 38% 0.00 in 942.00 W/m2
13:43 85.4 °F 56.9 °F 29.89 in SW 3.0 mph 5.0 mph 38% 0.00 in 940.00 W/m2
13:48 85.2 °F 55.3 °F 29.89 in Calm   7.0 mph 36% 0.00 in 935.00 W/m2
13:53 84.9 °F 57.2 °F 29.89 in WSW 2.0 mph 2.0 mph 39% 0.00 in 926.00 W/m2
13:58 85.1 °F 58.1 °F 29.89 in WSW 1.0 mph 9.0 mph 40% 0.00 in 928.00 W/m2
13:59 85.2 °F 57.5 °F 29.89 in SW 3.0 mph 9.0 mph 39% 0.00 in 926.00 W/m2
14:04 85.5 °F 56.3 °F 29.89 in SW 7.0 mph 10.0 mph 37% 0.00 in 921.00 W/m2
14:09 85.8 °F 58.0 °F 29.89 in WSW 5.0 mph 7.0 mph 39% 0.00 in 916.00 W/m2
14:10 85.9 °F 58.1 °F 29.89 in Calm   7.0 mph 39% 0.00 in 914.00 W/m2
14:15 85.9 °F 57.4 °F 29.89 in SW 5.0 mph 7.0 mph 38% 0.00 in 911.00 W/m2
14:20 86.2 °F 58.4 °F 29.89 in SSW 1.0 mph 12.0 mph 39% 0.00 in 907.00 W/m2
14:25 86.5 °F 58.6 °F 29.89 in SSW 6.0 mph 13.0 mph 39% 0.00 in 900.00 W/m2
14:30 86.9 °F 58.3 °F 29.89 in SSW 2.0 mph 11.0 mph 38% 0.00 in 898.00 W/m2
14:35 87.2 °F 57.8 °F 29.89 in Calm   14.0 mph 37% 0.00 in 888.00 W/m2
14:40 87.4 °F 58.0 °F 29.89 in Calm   9.0 mph 37% 0.00 in 875.00 W/m2
14:45 87.2 °F 57.0 °F 29.89 in SSW 4.0 mph 10.0 mph 36% 0.00 in 872.00 W/m2
14:50 86.7 °F 57.3 °F 29.89 in Calm   3.0 mph 37% 0.00 in 860.00 W/m2
14:56 85.7 °F 56.5 °F 29.89 in Calm   8.0 mph 37% 0.00 in 856.00 W/m2
15:01 85.4 °F 57.7 °F 29.89 in South 3.0 mph 8.0 mph 39% 0.00 in 847.00 W/m2
15:06 85.2 °F 56.0 °F 29.89 in West 1.0 mph 10.0 mph 37% 0.00 in 840.00 W/m2
15:11 85.0 °F 55.1 °F 29.90 in Calm   1.0 mph 36% 0.00 in 830.00 W/m2
15:16 84.8 °F 57.1 °F 29.90 in West 4.0 mph 10.0 mph 39% 0.00 in 816.00 W/m2
15:21 84.5 °F 55.4 °F 29.89 in WNW 3.0 mph 3.0 mph 37% 0.00 in 809.00 W/m2
15:26 84.3 °F 56.7 °F 29.89 in SSW 5.0 mph 9.0 mph 39% 0.00 in 800.00 W/m2
15:31 84.4 °F 55.3 °F 29.90 in SSW 1.0 mph 2.0 mph 37% 0.00 in 791.00 W/m2
15:36 84.6 °F 54.7 °F 29.90 in West 5.0 mph 10.0 mph 36% 0.00 in 780.00 W/m2
15:41 84.7 °F 55.6 °F 29.90 in SSW 7.0 mph 10.0 mph 37% 0.00 in 770.00 W/m2
15:46 84.8 °F 55.7 °F 29.90 in Calm     37% 0.00 in 754.00 W/m2
15:51 84.9 °F 56.5 °F 29.89 in Calm   8.0 mph 38% 0.00 in 744.00 W/m2
15:56 85.0 °F 55.8 °F 29.89 in SSW 10.0 mph 10.0 mph 37% 0.00 in 735.00 W/m2
16:01 85.0 °F 55.8 °F 29.89 in SW 5.0 mph 10.0 mph 37% 0.00 in 721.00 W/m2
16:06 85.1 °F 55.2 °F 29.90 in SSW 1.0 mph 7.0 mph 36% 0.00 in 712.00 W/m2
16:11 85.1 °F 55.9 °F 29.90 in Calm   10.0 mph 37% 0.00 in 700.00 W/m2
16:16 85.2 °F 54.5 °F 29.90 in West 1.0 mph 4.0 mph 35% 0.00 in 686.00 W/m2
16:21 85.1 °F 55.9 °F 29.90 in Calm   13.0 mph 37% 0.00 in 673.00 W/m2
16:26 85.1 °F 55.9 °F 29.90 in Calm   11.0 mph 37% 0.00 in 661.00 W/m2
16:31 85.1 °F 56.7 °F 29.90 in SW 5.0 mph 11.0 mph 38% 0.00 in 647.00 W/m2
16:36 84.9 °F 56.5 °F 29.90 in WSW 3.0 mph 4.0 mph 38% 0.00 in 631.00 W/m2
16:41 84.8 °F 54.9 °F 29.89 in Calm   5.0 mph 36% 0.00 in 622.00 W/m2
16:46 84.7 °F 55.6 °F 29.89 in Calm   5.0 mph 37% 0.00 in 606.00 W/m2
16:51 84.6 °F 54.7 °F 29.89 in Calm     36% 0.00 in 592.00 W/m2
16:56 84.5 °F 54.6 °F 29.90 in Calm   1.0 mph 36% 0.00 in 577.00 W/m2
17:01 84.5 °F 56.1 °F 29.89 in SW 1.0 mph 6.0 mph 38% 0.00 in 563.00 W/m2
17:06 84.5 °F 54.6 °F 29.89 in Calm   5.0 mph 36% 0.00 in 547.00 W/m2
17:11 84.4 °F 55.3 °F 29.89 in Calm   1.0 mph 37% 0.00 in 533.00 W/m2
17:16 84.4 °F 55.3 °F 29.89 in SSW 5.0 mph 10.0 mph 37% 0.00 in 520.00 W/m2
17:22 84.3 °F 55.2 °F 29.89 in SW 2.0 mph 7.0 mph 37% 0.00 in 503.00 W/m2
17:27 84.3 °F 56.0 °F 29.89 in SW 2.0 mph 5.0 mph 38% 0.00 in 487.00 W/m2
17:31 84.2 °F 55.9 °F 29.89 in SW 3.0 mph 6.0 mph 38% 0.00 in 473.00 W/m2
17:37 84.2 °F 55.9 °F 29.89 in Calm   5.0 mph 38% 0.00 in 459.00 W/m2
17:42 84.1 °F 55.8 °F 29.89 in Calm   1.0 mph 38% 0.00 in 443.00 W/m2
17:47 83.8 °F 56.2 °F 29.89 in Calm   1.0 mph 39% 0.00 in 429.00 W/m2
17:52 83.6 °F 56.0 °F 29.89 in WSW 1.0 mph 1.0 mph 39% 0.00 in 415.00 W/m2
17:57 83.4 °F 55.2 °F 29.89 in Calm   4.0 mph 38% 0.00 in 399.00 W/m2
18:02 83.3 °F 55.1 °F 29.89 in Calm   3.0 mph 38% 0.00 in 385.00 W/m2
18:07 83.2 °F 55.7 °F 29.89 in Calm   1.0 mph 39% 0.00 in 367.00 W/m2
18:12 83.1 °F 56.3 °F 29.89 in Calm     40% 0.00 in 352.00 W/m2
18:17 82.9 °F 56.1 °F 29.89 in Calm   1.0 mph 40% 0.00 in 338.00 W/m2
18:22 82.8 °F 56.7 °F 29.89 in Calm   5.0 mph 41% 0.00 in 322.00 W/m2
18:27 82.7 °F 56.6 °F 29.89 in Calm     41% 0.00 in 306.00 W/m2
18:32 82.5 °F 57.1 °F 29.89 in Calm   2.0 mph 42% 0.00 in 288.00 W/m2
18:37 82.4 °F 57.7 °F 29.89 in WSW 1.0 mph 2.0 mph 43% 0.00 in 276.00 W/m2
18:42 82.2 °F 57.5 °F 29.89 in Calm     43% 0.00 in 257.00 W/m2
18:47 82.0 °F 57.3 °F 29.89 in Calm     43% 0.00 in 241.00 W/m2
18:52 81.7 °F 57.7 °F 29.89 in Calm     44% 0.00 in 225.00 W/m2
18:57 81.4 °F 57.4 °F 29.89 in Calm     44% 0.00 in 211.00 W/m2
19:02 81.0 °F 58.3 °F 29.89 in Calm   1.0 mph 46% 0.00 in 199.00 W/m2
19:07 80.7 °F 58.6 °F 29.89 in Calm     47% 0.00 in 183.00 W/m2
19:12 80.4 °F 58.3 °F 29.89 in Calm   1.0 mph 47% 0.00 in 163.00 W/m2
19:17 80.1 °F 59.2 °F 29.90 in Calm     49% 0.00 in 146.00 W/m2
19:22 79.7 °F 59.4 °F 29.90 in Calm     50% 0.00 in 125.00 W/m2
19:27 79.3 °F 59.1 °F 29.90 in Calm     50% 0.00 in 107.00 W/m2
19:32 79.0 °F 58.8 °F 29.90 in Calm   1.0 mph 50% 0.00 in 91.00 W/m2
19:37 78.7 °F 59.1 °F 29.90 in Calm     51% 0.00 in 77.00 W/m2
19:42 78.4 °F 59.3 °F 29.90 in Calm   1.0 mph 52% 0.00 in 63.00 W/m2
19:47 78.1 °F 59.1 °F 29.90 in Calm     52% 0.00 in 51.00 W/m2
19:52 77.9 °F 58.9 °F 29.90 in Calm   1.0 mph 52% 0.00 in 39.00 W/m2
19:57 77.7 °F 58.2 °F 29.90 in Calm   1.0 mph 51% 0.00 in 30.00 W/m2
20:02 77.5 °F 58.5 °F 29.90 in Calm     52% 0.00 in 23.00 W/m2
20:07 77.3 °F 57.8 °F 29.90 in Calm   1.0 mph 51% 0.00 in 18.00 W/m2
20:13 76.8 °F 57.9 °F 29.90 in Calm   1.0 mph 52% 0.00 in 16.00 W/m2
20:18 76.4 °F 57.0 °F 29.90 in Calm   1.0 mph 51% 0.00 in 12.00 W/m2
20:23 76.1 °F 56.7 °F 29.90 in Calm   3.0 mph 51% 0.00 in 11.00 W/m2
20:25 75.9 °F 56.5 °F 29.90 in Calm   3.0 mph 51% 0.00 in 9.00 W/m2
20:30 75.4 °F 56.0 °F 29.90 in Calm   1.0 mph 51% 0.00 in 7.00 W/m2
20:35 75.0 °F 55.7 °F 29.90 in Calm   1.0 mph 51% 0.00 in 5.00 W/m2
20:40 74.6 °F 54.8 °F 29.90 in Calm   1.0 mph 50% 0.00 in 0.00 W/m2
20:45 74.4 °F 55.1 °F 29.90 in Calm   1.0 mph 51% 0.00 in 0.00 W/m2
20:50 74.2 °F 54.9 °F 29.90 in Calm   1.0 mph 51% 0.00 in 0.00 W/m2
20:56 73.9 °F 55.2 °F 29.90 in Calm   1.0 mph 52% 0.00 in 0.00 W/m2
21:00 73.7 °F 54.5 °F 29.90 in Calm   1.0 mph 51% 0.00 in 0.00 W/m2
21:06 73.5 °F 54.3 °F 29.91 in Calm   1.0 mph 51% 0.00 in 0.00 W/m2
21:11 73.4 °F 54.2 °F 29.91 in WSW 1.0 mph 1.0 mph 51% 0.00 in 0.00 W/m2
21:16 73.3 °F 54.1 °F 29.91 in Calm   1.0 mph 51% 0.00 in 0.00 W/m2
21:21 73.1 °F 53.9 °F 29.91 in Calm   1.0 mph 51% 0.00 in 0.00 W/m2
21:26 72.9 °F 53.7 °F 29.91 in Calm   1.0 mph 51% 0.00 in 0.00 W/m2
21:31 72.8 °F 53.6 °F 29.91 in Calm     51% 0.00 in 0.00 W/m2
21:36 72.7 °F 53.5 °F 29.91 in Calm     51% 0.00 in 0.00 W/m2
21:41 72.6 °F 53.5 °F 29.91 in Calm     51% 0.00 in 0.00 W/m2
21:46 72.5 °F 53.4 °F 29.92 in Calm     51% 0.00 in 0.00 W/m2
21:51 72.4 °F 53.3 °F 29.92 in Calm     51% 0.00 in 0.00 W/m2
21:56 72.4 °F 53.3 °F 29.92 in Calm     51% 0.00 in 0.00 W/m2
22:01 72.3 °F 53.2 °F 29.92 in Calm     51% 0.00 in 0.00 W/m2
22:06 72.2 °F 53.1 °F 29.92 in Calm     51% 0.00 in 0.00 W/m2
22:11 72.2 °F 53.6 °F 29.92 in Calm     52% 0.00 in 0.00 W/m2
22:16 72.1 °F 53.5 °F 29.92 in Calm   1.0 mph 52% 0.00 in 0.00 W/m2
22:21 72.0 °F 53.4 °F 29.92 in SSW 1.0 mph 1.0 mph 52% 0.00 in 0.00 W/m2
22:26 72.0 °F 54.0 °F 29.92 in Calm     53% 0.00 in 0.00 W/m2
22:31 71.9 °F 53.9 °F 29.92 in Calm     53% 0.00 in 0.00 W/m2
22:36 71.8 °F 53.8 °F 29.92 in Calm   1.0 mph 53% 0.00 in 0.00 W/m2
22:41 71.7 °F 54.2 °F 29.92 in Calm     54% 0.00 in 0.00 W/m2
22:46 71.6 °F 54.6 °F 29.92 in Calm   1.0 mph 55% 0.00 in 0.00 W/m2
22:51 71.5 °F 54.5 °F 29.92 in Calm   2.0 mph 55% 0.00 in 0.00 W/m2
22:56 71.5 °F 55.0 °F 29.92 in Calm   1.0 mph 56% 0.00 in 0.00 W/m2
23:01 71.4 °F 55.4 °F 29.92 in Calm   5.0 mph 57% 0.00 in 0.00 W/m2
23:06 71.3 °F 55.3 °F 29.92 in Calm     57% 0.00 in 0.00 W/m2
23:11 71.3 °F 55.8 °F 29.92 in Calm   4.0 mph 58% 0.00 in 0.00 W/m2
23:16 71.2 °F 55.7 °F 29.93 in Calm   6.0 mph 58% 0.00 in 0.00 W/m2
23:21 71.2 °F 55.7 °F 29.93 in Calm   4.0 mph 58% 0.00 in 0.00 W/m2
23:26 71.2 °F 55.7 °F 29.92 in ESE 1.0 mph 1.0 mph 58% 0.00 in 0.00 W/m2
23:31 71.2 °F 55.7 °F 29.92 in ESE 1.0 mph 2.0 mph 58% 0.00 in 0.00 W/m2
23:36 71.1 °F 56.1 °F 29.92 in Calm   6.0 mph 59% 0.00 in 0.00 W/m2
23:41 71.1 °F 56.1 °F 29.92 in ESE 4.0 mph 5.0 mph 59% 0.00 in 0.00 W/m2
23:51 71.0 °F 56.0 °F 29.92 in ESE 1.0 mph 6.0 mph 59% 0.00 in 0.00 W/m2
23:56 70.9 °F 55.9 °F 29.92 in ESE 4.0 mph 7.0 mph 59% 0.00 in 0.00 W/m2
Foresthill Weather
 WU-history PHP script courtesy of   Juneau County Weather.
powered by Cumulus v1.9.3 (1059)
Ambient Weather VWS v14.00
Top Contact Website Map Copyright © 2007 - 2018 Foresthillweather.com Never base important decisions on this or any weather information obtained from the Internet